Regional Weather Roundup
Issued by NWS Jackson, KY

Home | Current Version | Previous Version | Graphics & Text | Print | Product List | Glossary On
Versions: 1 2 3 4 5 6 7 8 9 10 11 12 13 14 15 16 17 18 19 20 21 22 23 24 25 26 27
000
ASUS43 KJKL 241810
RWRJKL

EAST KENTUCKY HOURLY WEATHER ROUNDUP
NATIONAL WEATHER SERVICE JACKSON KY
200 PM EDT SUN JUL 24 2016

NOTE: "FAIR" INDICATES FEW OR NO CLOUDS BELOW 12,000 FEET WITH
NO SIGNIFICANT WEATHER AND/OR OBSTRUCTIONS TO VISIBILITY.

* THESE REPORTS ARE NOT UNDER NWS QUALITY CONTROL AND MAY NOT
  REPORT WEATHER SUCH AS PRECIPITATION AND FOG.

KYZ079-080-083-085-087-088-110-112-115-119-120-241900
...EASTERN KENTUCKY...

CITY           SKY/WX    TMP DP  RH WIND       PRES   REMARKS
JACKSON        MOSUNNY   90  72  55 VRB3      30.08F HX  97
6HR MIN TEMP:  74; 6HR MAX TEMP:  90;

LONDON         MOSUNNY   90  69  50 S8        30.07F HX  94
6HR MIN TEMP:  74; 6HR MAX TEMP:  90;

SOMERSET*      MOSUNNY   86  70  58 W5        30.07F HX  90
MONTICELLO*    MOSUNNY  N/A N/A N/A W14       30.07F
WILLIAMSBURG*  CLEAR     90  72  55 SW3       30.07F HX  96
MIDDLESBORO*   SUNNY     89  73  59 SE7       30.07F HX  96
6HR MIN TEMP:  71; 6HR MAX TEMP:  89;

HARLAN APT*      N/A     88  70  55 CALM      30.10S HX  92
PIKE CO APT*     N/A     89  74  61 CALM      30.09F HX  97
MOREHEAD APT*  PTCLDY    90  72  55 VRB6G13   30.06F HX  96
ASHLAND*       MOSUNNY   93  75  55 S6        29.99F HX 104
$$

KYZ035-036-041-042-044-050-067-078-099-241900
...CENTRAL KENTUCKY...

CITY           SKY/WX    TMP DP  RH WIND       PRES   REMARKS
MT STERLING*   MOSUNNY   90  77  66 SW5       30.06F HX 102
FLEMING/MASON* PTSUNNY   92  73  53 S6        30.04F HX 101
DANVILLE*      SUNNY     90  72  55 SW8       30.06F HX  96
RICHMOND*      MOSUNNY   90  72  55 W8        30.05F HX  96
LEXINGTON      MOSUNNY   92  73  53 S8        30.04F HX 100
6HR MIN TEMP:  76; 6HR MAX TEMP:  93;

FRANKFORT      MOSUNNY   92  73  53 SW9       30.02F HX 100
6HR MIN TEMP:  77; 6HR MAX TEMP:  92;

LOUISVILLE     PTSUNNY   91  73  55 VRB5      30.00F HX  99
6HR MIN TEMP:  79; 6HR MAX TEMP:  93;

LEBANON*         N/A     88  75  66 S6        30.05F HX  97
GLASGOW*       PTSUNNY   89  74  60 SW3       30.04S HX  99
BOWLING GREEN  MOSUNNY   91  75  59 SW10      30.03F HX 101
6HR MIN TEMP:  76; 6HR MAX TEMP:  91;

$$

KYZ091>093-OHZ055-061-077-WVZ005-015-034-035-042-241900
...SOUTHERN OHIO/WEST VIRGINIA...

CITY           SKY/WX    TMP DP  RH WIND       PRES   REMARKS
COVINGTON      MOSUNNY   91  74  57 SW7       30.02F HX 100
COLUMBUS       PTSUNNY   91  72  53 SW13      30.00S HX  98
DAYTON         PTSUNNY   89  73  59 W8        30.03S HX  97
WILMINGTON     MOSUNNY   92  73  53 SW8       30.02S HX 100
HUNTINGTON       N/A     92  73  53 SW8       30.03F HX 100
CHARLESTON       N/A     92  71  50 NW6       30.04F HX  98
PINEVILLE*       N/A     94  66  39 MISG      30.14F HX  97
BECKLEY          N/A     88  66  48 SW6       30.14F HX  90
BLUEFIELD      PTSUNNY   85  63  47 W3        30.18S
LOGAN CO APT*    N/A     90  73  58 CALM      30.08F HX  98
$$

VAZ002-007-008-TNZ017-027-036-066-071-241900
...SOUTHWEST VIRGINIA/EAST TENNESSEE...

CITY           SKY/WX    TMP DP  RH WIND       PRES   REMARKS
WISE*            N/A     90  54  29 S3        30.17F
JONESVILLE*      N/A     90  72  55 SW5       30.11F HX  96
ABINGDON*        N/A     89  68  50 N5        30.13F HX  93
BRISTOL        PTSUNNY   92  67  43 SW6       30.08F HX  95
MORRISTOWN*    PTCLDY    90  70  51 CALM      30.07F HX  95
SEVIERVILLE*     N/A     91  70  49 VRB3      30.05F HX  97
KNOXVILLE      SUNNY     90  71  53 NW6       30.05F HX  96
OAK RIDGE      SUNNY     89  71  55 S6        30.08F HX  95
CROSSVILLE     PTSUNNY   85  69  58 W8        30.12F
NASHVILLE      PTSUNNY   91  72  53 W7        30.03F HX  98
$$

...KEY TO REMARKS...
VSB - VISIBILITY IN MILES
WCI - WIND CHILL INDEX
HX  - HEAT INDEX

$$




USA.gov is the U.S. government's official web portal to all federal, state and local government web resources and services.